This demonstration page uses our WeatherBlox Daily Observations layout. Learn more.

39.92423, -83.80882

Hourly Observations for April 7, 2017

Temp ( °F °C ) Dew Point ( °F °C ) Humidity (%) Winds ( mph kmh ) Pressure ( in mb ) Visibility ( mi km ) Precip ( " mm )
12:10 am 00:10 Cloudy with Light Rain 37 3 34 1 87 87 WNW 21 33 29.8 1009 10 16.0934 0 0.0254
12:56 am 00:56 Cloudy with Light Rain 37 2.8 34 1.1 89 89 WNW 17 28 29.81 1010 10 16.0934 0 0.0254
1:54 am 01:54 Cloudy 36 2 34 1 93 93 NW 16 26 29.83 1010 10 16.0934 0 0.0254
1:56 am 01:56 Cloudy 36 2.2 33 0.6 89 89 WNW 16 26 29.82 1010 10 16.0934 0 0.0254
2:56 am 02:56 Cloudy with Light Rain 36 2.2 32 0 86 86 NW 13 20 29.84 1011 10 16.0934 0 0.0254
3:46 am 03:46 Cloudy with Light Rain 36 2 34 1 93 93 WNW 15 24 29.85 1011 10 16.0934 0 0.0254
3:56 am 03:56 Cloudy with Light Snow 35 1.7 33 0.6 93 93 WNW 16 26 29.84 1011 9 14.48406 0 0.0254
4:14 am 04:14 Cloudy with Light Rain 36 2 34 1 93 93 WNW 16 26 29.85 1011 10 16.0934 0 0.0254
4:56 am 04:56 Cloudy with Light Snow 34 1.1 32 0 92 92 WNW 15 24 29.85 1011 7 11.26538 0 0.0254
5:56 am 05:56 Cloudy with Light Rain 34 1.1 32 0 92 92 WNW 17 28 29.86 1011 9 14.48406 0 0.0254
6:56 am 06:56 Cloudy with Light Snow 34 1.1 32 0 92 92 WNW 14 22 29.88 1012 9 14.48406 0.01 0.254
7:07 am 07:07 Cloudy with Light Snow 34 1 32 0 93 93 WNW 13 20 29.91 1013 9 14.48406 0 0.0254
7:21 am 07:21 Cloudy with Light Snow 34 1 32 0 93 93 WNW 15 24 29.91 1013 9 14.48406 0 0.0254
7:38 am 07:38 Cloudy 34 1 30 -1 87 87 WNW 16 26 29.91 1013 10 16.0934 0 0.0254
7:56 am 07:56 Mostly Cloudy 34 1.1 31 -0.6 89 89 WNW 15 24 29.89 1012 10 16.0934 0 0.0254
8:56 am 08:56 Partly Cloudy 35 1.7 30 -1.1 82 82 WNW 15 24 29.91 1013 10 16.0934 0 0
9:25 am 09:25 Mostly Cloudy 36 2 30 -1 81 81 NW 16 26 29.91 1013 10 16.0934 0 0
9:56 am 09:56 Cloudy 37 2.8 31 -0.6 79 79 NW 17 28 29.93 1013 10 16.0934 0 0
10:56 am 10:56 Cloudy 40 4.4 31 -0.6 70 70 NW 21 33 29.94 1014 10 16.0934 0 0
11:56 am 11:56 Mostly Cloudy 41 5 32 0 70 70 WNW 18 30 29.95 1014 10 16.0934 0 0
12:56 pm 12:56 Mostly Cloudy 45 7.2 33 0.6 63 63 WNW 20 31 29.95 1014 10 16.0934 0 0
1:07 pm 13:07 Mostly Cloudy 45 7 34 1 66 66 WNW 20 31 29.97 1015 10 16.0934 0 0
1:56 pm 13:56 Partly Cloudy 46 7.8 33 0.6 61 61 WNW 24 39 29.96 1015 10 16.0934 0 0
2:56 pm 14:56 Partly Cloudy 48 8.9 33 0.6 56 56 NW 17 28 29.97 1015 10 16.0934 0 0
3:56 pm 15:56 Mostly Sunny 50 10 32 0 50 50 NW 16 26 29.96 1015 10 16.0934 0 0
4:56 pm 16:56 Mostly Sunny 52 11.1 32 0 47 47 NNW 16 26 29.97 1015 10 16.0934 0 0
5:56 pm 17:56 Sunny 51 10.6 28 -2.2 41 41 NW 20 31 29.98 1015 10 16.0934 0 0
6:56 pm 18:56 Sunny 50 10 28 -2.2 43 43 WNW 17 28 29.99 1016 10 16.0934 0 0
7:56 pm 19:56 Sunny 47 8.3 28 -2.2 48 48 NW 12 19 30.01 1016 10 16.0934 0 0
8:56 pm 20:56 Clear 44 6.7 29 -1.7 55 55 WNW 8 13 30.03 1017 10 16.0934 0 0
9:56 pm 21:56 Clear 43 6.1 30 -1.1 60 60 WNW 10 17 30.05 1018 10 16.0934 0 0
10:56 pm 22:56 Clear 41 5 30 -1.1 65 65 W 9 15 30.06 1018 10 16.0934 0 0
11:56 pm 23:56 Clear 38 3.3 29 -1.7 70 70 WNW 6 9 30.06 1018 10 16.0934 0 0

Powered by AerisWeather